TimeCST,TemperatureF,Dew PointF,Humidity,Sea Level PressureIn,VisibilityMPH,Wind Direction,Wind SpeedMPH,Gust SpeedMPH,PrecipitationIn,Events,Conditions,WindDirDegrees,DateUTC
12:53 AM,57.9,54.0,87,29.94,10.0,West,6.9,-,N/A,,Partly Cloudy,260,2013-02-08 06:53:00
1:53 AM,57.0,54.0,89,29.94,10.0,West,5.8,-,N/A,,Scattered Clouds,270,2013-02-08 07:53:00
2:07 AM,57.2,53.6,88,29.95,10.0,West,8.1,-,N/A,,Mostly Cloudy,280,2013-02-08 08:07:00
2:22 AM,57.2,53.6,88,29.96,6.0,NW,8.1,21.9,0.02,Rain,Rain,310,2013-02-08 08:22:00
2:53 AM,55.9,54.0,93,29.95,10.0,North,5.8,-,0.02,,Overcast,360,2013-02-08 08:53:00
3:28 AM,55.4,53.6,94,29.97,10.0,Variable,6.9,-,N/A,,Overcast,0,2013-02-08 09:28:00
3:53 AM,55.0,53.1,93,29.99,10.0,NNW,6.9,-,N/A,,Overcast,340,2013-02-08 09:53:00
4:53 AM,54.0,51.1,90,30.01,10.0,North,6.9,-,N/A,,Overcast,360,2013-02-08 10:53:00
5:07 AM,53.6,50.0,88,30.03,10.0,North,8.1,17.3,N/A,,Overcast,10,2013-02-08 11:07:00
5:53 AM,53.1,48.0,83,30.05,10.0,Variable,6.9,-,N/A,,Overcast,0,2013-02-08 11:53:00
6:10 AM,53.6,48.2,82,30.07,10.0,North,10.4,21.9,N/A,,Overcast,10,2013-02-08 12:10:00
6:53 AM,52.0,46.0,80,30.09,10.0,North,8.1,-,N/A,,Overcast,10,2013-02-08 12:53:00
7:53 AM,51.1,44.1,77,30.14,10.0,NNE,6.9,-,N/A,,Overcast,20,2013-02-08 13:53:00
8:53 AM,51.1,42.1,71,30.18,10.0,Variable,6.9,16.1,N/A,,Overcast,0,2013-02-08 14:53:00
9:53 AM,51.1,39.9,66,30.21,10.0,NNE,12.7,23.0,N/A,,Mostly Cloudy,20,2013-02-08 15:53:00
10:53 AM,52.0,39.9,63,30.23,10.0,NNE,11.5,21.9,N/A,,Overcast,30,2013-02-08 16:53:00
12:10 PM,53.6,39.2,58,30.23,10.0,NNE,11.5,19.6,N/A,,Scattered Clouds,30,2013-02-08 18:10:00
12:53 PM,54.0,39.0,57,30.22,10.0,NE,13.8,19.6,N/A,,Partly Cloudy,40,2013-02-08 18:53:00
1:53 PM,55.0,37.9,53,30.21,10.0,ENE,16.1,23.0,N/A,,Clear,60,2013-02-08 19:53:00
2:53 PM,55.0,39.9,57,30.21,10.0,NE,15.0,20.7,N/A,,Clear,50,2013-02-08 20:53:00
3:53 PM,54.0,37.9,55,30.21,10.0,NE,13.8,18.4,N/A,,Clear,50,2013-02-08 21:53:00
4:53 PM,52.0,37.9,59,30.22,10.0,NE,9.2,16.1,N/A,,Clear,40,2013-02-08 22:53:00
5:53 PM,48.9,37.9,66,30.24,10.0,North,5.8,-,N/A,,Clear,10,2013-02-08 23:53:00
6:53 PM,46.0,37.9,73,30.24,10.0,Variable,4.6,-,N/A,,Clear,0,2013-02-09 00:53:00
7:53 PM,43.0,37.0,80,30.26,10.0,NE,4.6,-,N/A,,Clear,40,2013-02-09 01:53:00
8:53 PM,42.1,37.0,82,30.26,9.0,ENE,10.4,-,N/A,,Clear,60,2013-02-09 02:53:00
9:53 PM,39.0,36.0,89,30.28,7.0,ENE,8.1,-,N/A,,Clear,60,2013-02-09 03:53:00
10:53 PM,39.0,34.0,82,30.27,7.0,NE,10.4,-,N/A,,Clear,50,2013-02-09 04:53:00
11:53 PM,37.0,33.1,86,30.28,7.0,ENE,6.9,-,N/A,,Clear,60,2013-02-09 05:53:00